GIPSM EIDL-EINN

Flight info

Callsign GIPSM
Flight time 1h 7m
Altitude 5500
Route DONEGAL DCT LOUGH REE DCT LOUGH DERG
Aircraft BE58/L-SDFGRY/C

Departure

Time 2026-04-25 07:20
Airport Donegal Airport (EIDL)

Arrival

Time 2026-04-25 08:28
Airport Shannon Airport (EINN)
Time Latitude Longitude Altitude Speed Heading
2026-04-25 07:16 55.03849 -8.34269 5 ft 0 kts 290°
2026-04-25 07:19 55.03863 -8.34295 5 ft 7 kts 317°
2026-04-25 07:19 55.03893 -8.34410 6 ft 14 kts 323°
2026-04-25 07:19 55.04031 -8.34347 6 ft 34 kts 20°
2026-04-25 07:19 55.04436 -8.34084 8 ft 89 kts 18°
2026-04-25 07:20 55.05070 -8.33679 159 ft 105 kts 22°
2026-04-25 07:20 55.05798 -8.33217 386 ft 117 kts 20°
2026-04-25 07:20 55.06597 -8.32862 676 ft 122 kts 357°
2026-04-25 07:20 55.07320 -8.33579 897 ft 129 kts 306°
2026-04-25 07:21 55.07696 -8.35016 1061 ft 136 kts 276°
2026-04-25 07:21 55.07521 -8.36673 1060 ft 150 kts 239°
2026-04-25 07:21 55.06874 -8.38211 1047 ft 161 kts 231°
2026-04-25 07:21 55.06184 -8.39742 1166 ft 162 kts 230°
2026-04-25 07:22 55.05439 -8.41242 1205 ft 165 kts 219°
2026-04-25 07:22 55.04402 -8.42056 1222 ft 167 kts 189°
2026-04-25 07:22 55.03244 -8.42089 1283 ft 165 kts 171°
2026-04-25 07:22 55.02113 -8.41701 1332 ft 166 kts 167°
2026-04-25 07:23 55.00991 -8.41263 1369 ft 167 kts 167°
2026-04-25 07:23 54.99861 -8.40856 1482 ft 164 kts 168°
2026-04-25 07:23 54.98726 -8.40520 1529 ft 166 kts 170°
2026-04-25 07:23 54.97611 -8.40075 1564 ft 166 kts 162°
2026-04-25 07:24 54.96537 -8.39337 1636 ft 165 kts 157°
2026-04-25 07:24 54.95471 -8.38554 1691 ft 166 kts 158°
2026-04-25 07:24 54.94401 -8.37833 1734 ft 167 kts 161°
2026-04-25 07:24 54.93306 -8.37158 1808 ft 165 kts 161°
2026-04-25 07:25 54.92241 -8.36462 1854 ft 166 kts 159°
2026-04-25 07:25 54.91158 -8.35712 1894 ft 167 kts 159°
2026-04-25 07:25 54.90068 -8.34949 1941 ft 168 kts 159°
2026-04-25 07:25 54.88985 -8.34217 2005 ft 167 kts 160°
2026-04-25 07:26 54.87892 -8.33521 2055 ft 167 kts 161°
2026-04-25 07:26 54.86791 -8.32794 2106 ft 167 kts 160°
2026-04-25 07:26 54.85705 -8.32066 2148 ft 168 kts 160°
2026-04-25 07:26 54.84611 -8.31336 2192 ft 168 kts 160°
2026-04-25 07:27 54.83556 -8.30630 2470 ft 154 kts 160°
2026-04-25 07:27 54.82610 -8.30020 2865 ft 138 kts 159°
2026-04-25 07:27 54.81752 -8.29421 3193 ft 130 kts 158°
2026-04-25 07:27 54.80904 -8.28799 3366 ft 135 kts 157°
2026-04-25 07:28 54.80050 -8.28089 3580 ft 135 kts 154°
2026-04-25 07:28 54.79230 -8.27353 3820 ft 133 kts 153°
2026-04-25 07:28 54.78419 -8.26549 4012 ft 135 kts 152°
2026-04-25 07:28 54.77596 -8.25751 4207 ft 136 kts 152°
2026-04-25 07:29 54.76773 -8.24925 4416 ft 136 kts 151°
2026-04-25 07:29 54.75965 -8.24071 4614 ft 136 kts 150°
2026-04-25 07:29 54.75155 -8.23225 4779 ft 138 kts 151°
2026-04-25 07:29 54.74326 -8.22386 4998 ft 136 kts 151°
2026-04-25 07:30 54.73504 -8.21557 5176 ft 138 kts 152°
2026-04-25 07:30 54.72672 -8.20729 5348 ft 137 kts 151°
2026-04-25 07:30 54.71836 -8.19887 5392 ft 140 kts 152°
2026-04-25 07:30 54.70983 -8.19060 5435 ft 141 kts 152°
2026-04-25 07:31 54.70131 -8.18210 5467 ft 144 kts 150°
2026-04-25 07:31 54.69288 -8.17244 5531 ft 139 kts 144°
2026-04-25 07:31 54.68615 -8.16349 5743 ft 133 kts 145°
2026-04-25 07:31 54.67816 -8.15235 5538 ft 152 kts 143°
2026-04-25 07:32 54.66968 -8.14068 5508 ft 154 kts 143°
2026-04-25 07:32 54.66140 -8.12893 5516 ft 154 kts 141°
2026-04-25 07:32 54.65326 -8.11641 5462 ft 157 kts 138°
2026-04-25 07:32 54.64563 -8.10319 5480 ft 156 kts 137°
2026-04-25 07:33 54.63770 -8.09013 5458 ft 156 kts 140°
2026-04-25 07:33 54.62916 -8.07792 5428 ft 157 kts 142°
2026-04-25 07:33 54.62075 -8.06594 5441 ft 156 kts 143°
2026-04-25 07:33 54.61221 -8.05391 5438 ft 156 kts 142°
2026-04-25 07:34 54.60342 -8.04089 5415 ft 157 kts 140°
2026-04-25 07:34 54.59498 -8.02783 5417 ft 156 kts 140°
2026-04-25 07:34 54.58676 -8.01484 5416 ft 156 kts 139°
2026-04-25 07:34 54.57846 -8.00166 5396 ft 157 kts 140°
2026-04-25 07:35 54.57001 -7.98846 5408 ft 156 kts 140°
2026-04-25 07:35 54.56147 -7.97562 5381 ft 157 kts 141°
2026-04-25 07:35 54.55281 -7.96334 5386 ft 156 kts 143°
2026-04-25 07:35 54.54377 -7.95121 5388 ft 156 kts 143°
2026-04-25 07:36 54.53489 -7.93842 5362 ft 157 kts 141°
2026-04-25 07:36 54.52630 -7.92526 5380 ft 156 kts 140°
2026-04-25 07:36 54.51788 -7.91196 5367 ft 156 kts 139°
2026-04-25 07:36 54.50942 -7.89854 5354 ft 157 kts 139°
2026-04-25 07:37 54.50100 -7.88550 5352 ft 156 kts 140°
2026-04-25 07:37 54.49223 -7.87263 5338 ft 156 kts 142°
2026-04-25 07:37 54.48334 -7.86066 5351 ft 155 kts 145°
2026-04-25 07:37 54.47414 -7.84924 5314 ft 157 kts 146°
2026-04-25 07:38 54.46476 -7.83777 5318 ft 156 kts 147°
2026-04-25 07:38 54.45543 -7.82684 5325 ft 155 kts 148°
2026-04-25 07:38 54.44564 -7.81581 5300 ft 156 kts 149°
2026-04-25 07:38 54.43543 -7.80629 5319 ft 154 kts 157°
2026-04-25 07:39 54.42451 -7.79963 5325 ft 153 kts 166°
2026-04-25 07:39 54.41360 -7.79538 5350 ft 151 kts 168°
2026-04-25 07:39 54.40279 -7.79130 5346 ft 152 kts 168°
2026-04-25 07:39 54.39184 -7.78757 5327 ft 153 kts 169°
2026-04-25 07:40 54.38076 -7.78461 5358 ft 152 kts 172°
2026-04-25 07:40 54.36984 -7.78284 5334 ft 154 kts 176°
2026-04-25 07:40 54.35858 -7.78255 5346 ft 153 kts 181°
2026-04-25 07:40 54.34750 -7.78422 5348 ft 153 kts 187°
2026-04-25 07:41 54.33599 -7.78731 5342 ft 153 kts 185°
2026-04-25 07:41 54.32450 -7.78842 5367 ft 152 kts 181°
2026-04-25 07:41 54.31311 -7.78907 5367 ft 152 kts 182°
2026-04-25 07:41 54.30178 -7.79012 5347 ft 154 kts 184°
2026-04-25 07:42 54.29056 -7.79199 5378 ft 152 kts 186°
2026-04-25 07:42 54.27924 -7.79398 5388 ft 151 kts 185°
2026-04-25 07:42 54.26832 -7.79583 5373 ft 153 kts 185°
2026-04-25 07:42 54.25751 -7.79783 5383 ft 152 kts 185°
2026-04-25 07:43 54.24658 -7.80011 5398 ft 151 kts 187°
2026-04-25 07:43 54.23578 -7.80308 5390 ft 152 kts 189°
2026-04-25 07:43 54.22503 -7.80666 5376 ft 153 kts 188°
2026-04-25 07:43 54.21395 -7.80850 5383 ft 152 kts 182°
2026-04-25 07:44 54.20276 -7.80916 5388 ft 152 kts 181°
2026-04-25 07:44 54.19101 -7.80978 5394 ft 152 kts 181°
2026-04-25 07:44 54.17927 -7.81072 5421 ft 151 kts 183°
2026-04-25 07:44 54.16806 -7.81171 5403 ft 152 kts 181°
2026-04-25 07:45 54.15681 -7.81175 5408 ft 152 kts 179°
2026-04-25 07:45 54.14576 -7.81132 5415 ft 152 kts 178°
2026-04-25 07:45 54.13455 -7.81043 5417 ft 152 kts 176°
2026-04-25 07:45 54.12305 -7.80926 5424 ft 151 kts 176°
2026-04-25 07:46 54.11166 -7.80844 5445 ft 150 kts 178°
2026-04-25 07:46 54.10018 -7.80856 5422 ft 152 kts 182°
2026-04-25 07:46 54.08884 -7.81020 5431 ft 151 kts 187°
2026-04-25 07:46 54.07790 -7.81229 5466 ft 149 kts 183°
2026-04-25 07:47 54.06685 -7.81274 5436 ft 152 kts 179°
2026-04-25 07:47 54.05528 -7.81206 5439 ft 151 kts 177°
2026-04-25 07:47 54.04383 -7.81089 5453 ft 151 kts 176°
2026-04-25 07:47 54.03251 -7.80976 5432 ft 152 kts 176°
2026-04-25 07:48 54.02084 -7.80807 5463 ft 151 kts 174°
2026-04-25 07:48 54.00946 -7.80622 5454 ft 152 kts 175°
2026-04-25 07:48 53.99809 -7.80486 5465 ft 151 kts 177°
2026-04-25 07:48 53.98673 -7.80467 5476 ft 150 kts 181°
2026-04-25 07:49 53.97563 -7.80580 5461 ft 151 kts 182°
2026-04-25 07:49 53.96423 -7.80680 5485 ft 150 kts 182°
2026-04-25 07:49 53.95276 -7.80792 5484 ft 150 kts 182°
2026-04-25 07:49 53.94119 -7.80884 5475 ft 151 kts 182°
2026-04-25 07:50 53.92958 -7.80973 5466 ft 151 kts 182°
2026-04-25 07:50 53.91827 -7.81119 5471 ft 151 kts 185°
2026-04-25 07:50 53.90735 -7.81384 5453 ft 153 kts 189°
2026-04-25 07:50 53.89661 -7.81830 5492 ft 150 kts 194°
2026-04-25 07:51 53.88624 -7.82280 5484 ft 151 kts 192°
2026-04-25 07:51 53.87524 -7.82723 5497 ft 151 kts 192°
2026-04-25 07:51 53.86461 -7.83140 5504 ft 151 kts 191°
2026-04-25 07:51 53.85373 -7.83546 5504 ft 151 kts 191°
2026-04-25 07:52 53.84299 -7.83944 5504 ft 151 kts 191°
2026-04-25 07:52 53.83237 -7.84336 5504 ft 152 kts 191°
2026-04-25 07:52 53.82195 -7.84722 5504 ft 152 kts 191°
2026-04-25 07:52 53.81120 -7.85118 5503 ft 152 kts 191°
2026-04-25 07:53 53.80053 -7.85513 5504 ft 152 kts 191°
2026-04-25 07:53 53.79345 -7.85774 5504 ft 151 kts 191°
2026-04-25 07:53 53.77929 -7.86297 5504 ft 151 kts 191°
2026-04-25 07:53 53.76857 -7.86698 5504 ft 152 kts 191°
2026-04-25 07:54 53.75802 -7.87095 5504 ft 152 kts 191°
2026-04-25 07:54 53.74742 -7.87497 5504 ft 152 kts 191°
2026-04-25 07:54 53.73691 -7.87895 5504 ft 152 kts 191°
2026-04-25 07:54 53.72640 -7.88291 5505 ft 152 kts 191°
2026-04-25 07:55 53.71598 -7.88679 5504 ft 152 kts 191°
2026-04-25 07:55 53.70561 -7.89065 5504 ft 152 kts 191°
2026-04-25 07:55 53.69527 -7.89445 5504 ft 152 kts 191°
2026-04-25 07:55 53.68486 -7.89828 5504 ft 152 kts 191°
2026-04-25 07:56 53.67424 -7.90217 5503 ft 152 kts 191°
2026-04-25 07:56 53.66375 -7.90602 5503 ft 152 kts 191°
2026-04-25 07:56 53.65303 -7.90996 5503 ft 152 kts 191°
2026-04-25 07:56 53.64217 -7.91402 5504 ft 152 kts 191°
2026-04-25 07:57 53.63133 -7.91808 5503 ft 152 kts 191°
2026-04-25 07:57 53.62059 -7.92209 5503 ft 152 kts 191°
2026-04-25 07:57 53.60966 -7.92615 5504 ft 152 kts 191°
2026-04-25 07:57 53.59856 -7.93027 5503 ft 152 kts 191°
2026-04-25 07:58 53.58778 -7.93429 5503 ft 152 kts 191°
2026-04-25 07:58 53.57687 -7.93834 5504 ft 152 kts 191°
2026-04-25 07:58 53.56605 -7.94230 5503 ft 152 kts 191°
2026-04-25 07:58 53.55508 -7.94631 5503 ft 152 kts 191°
2026-04-25 07:59 53.54427 -7.95025 5504 ft 152 kts 191°
2026-04-25 07:59 53.53338 -7.95422 5504 ft 152 kts 191°
2026-04-25 07:59 53.52265 -7.95821 5503 ft 152 kts 191°
2026-04-25 07:59 53.51163 -7.96234 5503 ft 151 kts 191°
2026-04-25 08:00 53.50084 -7.96641 5503 ft 151 kts 191°
2026-04-25 08:00 53.49009 -7.97046 5503 ft 151 kts 191°
2026-04-25 08:00 53.47937 -7.97449 5503 ft 151 kts 191°
2026-04-25 08:00 53.46889 -7.97862 5494 ft 152 kts 193°
2026-04-25 08:01 53.45853 -7.98374 5473 ft 153 kts 197°
2026-04-25 08:01 53.44816 -7.98970 5481 ft 152 kts 197°
2026-04-25 08:01 53.43798 -7.99529 5482 ft 152 kts 197°
2026-04-25 08:01 53.42770 -8.00114 5464 ft 153 kts 198°
2026-04-25 08:02 53.41739 -8.00807 5478 ft 152 kts 202°
2026-04-25 08:02 53.40757 -8.01665 5450 ft 154 kts 206°
2026-04-25 08:02 53.39766 -8.02531 5457 ft 153 kts 204°
2026-04-25 08:02 53.38759 -8.03372 5457 ft 153 kts 204°
2026-04-25 08:03 53.37781 -8.04190 5447 ft 154 kts 205°
2026-04-25 08:03 53.36804 -8.05097 5430 ft 155 kts 208°
2026-04-25 08:03 53.35886 -8.06156 5436 ft 155 kts 215°
2026-04-25 08:03 53.34997 -8.07248 5422 ft 155 kts 211°
2026-04-25 08:04 53.34080 -8.08242 5438 ft 153 kts 210°
2026-04-25 08:04 53.33126 -8.09253 5433 ft 153 kts 209°
2026-04-25 08:04 53.32192 -8.10162 5405 ft 152 kts 206°
2026-04-25 08:04 53.31204 -8.10984 5170 ft 159 kts 202°
2026-04-25 08:05 53.30164 -8.11629 5082 ft 154 kts 197°
2026-04-25 08:05 53.29113 -8.12145 4974 ft 154 kts 192°
2026-04-25 08:05 53.28028 -8.12452 4796 ft 156 kts 184°
2026-04-25 08:05 53.26939 -8.12472 4712 ft 153 kts 177°
2026-04-25 08:06 53.25870 -8.12330 4586 ft 153 kts 173°
2026-04-25 08:06 53.24803 -8.12061 4437 ft 154 kts 173°
2026-04-25 08:06 53.23715 -8.11998 4361 ft 151 kts 182°
2026-04-25 08:06 53.22660 -8.12283 4201 ft 155 kts 194°
2026-04-25 08:07 53.21635 -8.12831 4100 ft 153 kts 198°
2026-04-25 08:07 53.20655 -8.13516 4014 ft 152 kts 202°
2026-04-25 08:07 53.19686 -8.14230 3865 ft 155 kts 201°
2026-04-25 08:07 53.18693 -8.14948 3787 ft 152 kts 201°
2026-04-25 08:08 53.17733 -8.15646 3694 ft 152 kts 200°
2026-04-25 08:08 53.16729 -8.16274 3573 ft 152 kts 196°
2026-04-25 08:08 53.15718 -8.16724 3482 ft 151 kts 189°
2026-04-25 08:08 53.14676 -8.17001 3371 ft 151 kts 191°
2026-04-25 08:09 53.13657 -8.17567 3243 ft 153 kts 202°
2026-04-25 08:09 53.12726 -8.18425 3154 ft 153 kts 211°
2026-04-25 08:09 53.11863 -8.19502 3051 ft 154 kts 217°
2026-04-25 08:09 53.11061 -8.20686 2939 ft 156 kts 221°
2026-04-25 08:10 53.10319 -8.22029 2850 ft 156 kts 226°
2026-04-25 08:10 53.09625 -8.23477 2754 ft 156 kts 229°
2026-04-25 08:10 53.08951 -8.24931 2653 ft 156 kts 229°
2026-04-25 08:10 53.08247 -8.26379 2569 ft 155 kts 226°
2026-04-25 08:11 53.07511 -8.27740 2475 ft 154 kts 223°
2026-04-25 08:11 53.06757 -8.29059 2385 ft 154 kts 222°
2026-04-25 08:11 53.05989 -8.30306 2391 ft 151 kts 220°
2026-04-25 08:11 53.05209 -8.31476 2315 ft 153 kts 217°
2026-04-25 08:12 53.04346 -8.32535 2260 ft 152 kts 210°
2026-04-25 08:12 53.03456 -8.33461 2239 ft 151 kts 212°
2026-04-25 08:12 53.02581 -8.34488 2182 ft 153 kts 213°
2026-04-25 08:12 53.01741 -8.35614 2207 ft 150 kts 221°
2026-04-25 08:13 53.01015 -8.36981 2165 ft 153 kts 229°
2026-04-25 08:13 53.00339 -8.38451 2135 ft 153 kts 229°
2026-04-25 08:13 52.99661 -8.39894 2125 ft 151 kts 228°
2026-04-25 08:14 52.98141 -8.42563 2063 ft 151 kts 220°
2026-04-25 08:14 52.97369 -8.43911 2053 ft 151 kts 227°
2026-04-25 08:14 52.96702 -8.45322 2071 ft 150 kts 231°
2026-04-25 08:14 52.96075 -8.46739 2048 ft 151 kts 231°
2026-04-25 08:15 52.95454 -8.48147 2035 ft 151 kts 230°
2026-04-25 08:15 52.94804 -8.49526 2029 ft 150 kts 228°
2026-04-25 08:15 52.94162 -8.50915 2007 ft 151 kts 230°
2026-04-25 08:15 52.93527 -8.52346 1996 ft 151 kts 231°
2026-04-25 08:16 52.92916 -8.53750 2006 ft 150 kts 232°
2026-04-25 08:16 52.92315 -8.55199 1978 ft 152 kts 233°
2026-04-25 08:16 52.91737 -8.56690 1968 ft 152 kts 235°
2026-04-25 08:16 52.91189 -8.58228 1954 ft 152 kts 237°
2026-04-25 08:17 52.90645 -8.59740 1950 ft 151 kts 236°
2026-04-25 08:17 52.90087 -8.61253 1935 ft 151 kts 236°
2026-04-25 08:17 52.89531 -8.62740 1915 ft 151 kts 235°
2026-04-25 08:17 52.88958 -8.64251 1914 ft 151 kts 235°
2026-04-25 08:18 52.88391 -8.65748 1901 ft 150 kts 234°
2026-04-25 08:18 52.87808 -8.67244 1896 ft 150 kts 233°
2026-04-25 08:18 52.87225 -8.68681 1883 ft 150 kts 232°
2026-04-25 08:18 52.86636 -8.70147 1878 ft 150 kts 233°
2026-04-25 08:19 52.86072 -8.71628 1878 ft 150 kts 235°
2026-04-25 08:19 52.85532 -8.73110 1856 ft 151 kts 236°
2026-04-25 08:19 52.84999 -8.74650 1840 ft 151 kts 238°
2026-04-25 08:19 52.84519 -8.76202 1855 ft 150 kts 241°
2026-04-25 08:20 52.84050 -8.77810 1823 ft 152 kts 241°
2026-04-25 08:20 52.83596 -8.79403 1831 ft 151 kts 242°
2026-04-25 08:20 52.83146 -8.81003 1830 ft 151 kts 242°
2026-04-25 08:20 52.82706 -8.82618 1817 ft 152 kts 243°
2026-04-25 08:21 52.82299 -8.84231 1828 ft 151 kts 245°
2026-04-25 08:21 52.81931 -8.85857 1819 ft 151 kts 248°
2026-04-25 08:21 52.81540 -8.87523 1815 ft 150 kts 240°
2026-04-25 08:21 52.80879 -8.88853 1740 ft 151 kts 217°
2026-04-25 08:22 52.80026 -8.89887 1725 ft 151 kts 214°
2026-04-25 08:22 52.79139 -8.90992 1642 ft 154 kts 216°
2026-04-25 08:22 52.78271 -8.92137 1534 ft 158 kts 217°
2026-04-25 08:22 52.77401 -8.93248 1506 ft 156 kts 214°
2026-04-25 08:23 52.76522 -8.94255 1468 ft 155 kts 211°
2026-04-25 08:23 52.75586 -8.95191 1390 ft 157 kts 208°
2026-04-25 08:23 52.74607 -8.96044 1350 ft 157 kts 204°
2026-04-25 08:23 52.73587 -8.96743 1313 ft 155 kts 198°
2026-04-25 08:24 52.72532 -8.97366 1244 ft 157 kts 201°
2026-04-25 08:24 52.71557 -8.98245 1225 ft 155 kts 213°
2026-04-25 08:24 52.70693 -8.99339 1234 ft 153 kts 219°
2026-04-25 08:24 52.69878 -9.00517 1243 ft 151 kts 220°
2026-04-25 08:25 52.69053 -9.01765 1140 ft 157 kts 221°
2026-04-25 08:25 52.68170 -9.02805 1049 ft 152 kts 198°
2026-04-25 08:25 52.67102 -9.02862 927 ft 146 kts 164°
2026-04-25 08:25 52.66253 -9.01921 819 ft 141 kts 128°
2026-04-25 08:26 52.65925 -9.00469 828 ft 134 kts 90°
2026-04-25 08:26 52.66386 -8.99035 689 ft 140 kts 43°
2026-04-25 08:26 52.67195 -8.98183 749 ft 128 kts 32°
2026-04-25 08:26 52.67977 -8.97291 447 ft 129 kts 47°
2026-04-25 08:27 52.68490 -8.96100 296 ft 111 kts 57°
2026-04-25 08:27 52.68998 -8.95048 159 ft 97 kts 54°
2026-04-25 08:27 52.69436 -8.94105 45 ft 89 kts 56°
2026-04-25 08:27 52.69815 -8.93281 16 ft 65 kts 57°
2026-04-25 08:28 52.69908 -8.92967 13 ft 22 kts 122°
2026-04-25 08:28 52.69806 -8.92787 10 ft 17 kts 135°
2026-04-25 08:28 52.69716 -8.92642 10 ft 15 kts 136°
2026-04-25 08:28 52.69634 -8.92516 10 ft 13 kts 135°
2026-04-25 08:29 52.69562 -8.92395 10 ft 12 kts 134°
2026-04-25 08:29 52.69511 -8.92274 10 ft 11 kts 115°
2026-04-25 08:29 52.69479 -8.92147 10 ft 11 kts 109°
2026-04-25 08:29 52.69458 -8.92009 10 ft 11 kts 101°
2026-04-25 08:30 52.69432 -8.91862 9 ft 13 kts 113°
2026-04-25 08:30 52.69359 -8.91754 8 ft 14 kts 164°
2026-04-25 08:30 52.69274 -8.91635 7 ft 14 kts 129°
2026-04-25 08:30 52.69257 -8.91524 7 ft 9 kts 77°
2026-04-25 08:31 52.69239 -8.91407 7 ft 10 kts 107°
2026-04-25 08:31 52.69233 -8.91342 6 ft 5 kts 159°
2026-04-25 08:31 52.69227 -8.91343 6 ft 0 kts 220°